#timestamp,LO_Frequency,Hit,StdDev 
1551924015.1,286047000.8,N
1551924035.9,286047000.9,N
1551924055.7,286046998.2,N
1551924075.6,286046998.3,N
1551924095.4,286046998.4,N
1551924115.2,286047001.1,N
1551924135.1,286046998.5,N
1551924155.3,286046998.5,N
1551924175.2,286047000.1,N
1551924195.0,286047000.7,N
1551924195.9,286047000.7,N
1551924215.7,286046998.7,N
1551924235.6,286047000.7,N
1551924255.4,286047001.1,N
1551924275.3,286046998.5,N
1551924295.1,286046998.2,N
1551924315.8,286046998.5,N
1551924335.7,286046999.2,N
1551924355.5,286046997.1,N
1551924375.4,286046997.1,N
1551924395.2,286046996.9,N
1551924415.0,286046997.7,N
1551924415.9,286046997.7,N
1551924435.8,286046997.7,N
1551924455.6,286046995.1,Y
1551924475.4,286046996.9,P
1551924495.3,286046996.5,P
1551924515.1,286046998.3,N
1551924535.9,286046999.6,N
1551924555.7,286046996.8,N
1551924575.5,286046995.4,Y
1551924595.4,286046999.2,P
1551924615.2,286046997.7,P
1551924635.1,286046996.5,P
1551924636.0,286046996.5,Y
1551924655.8,286047001.6,P
1551924675.6,286047001.5,N
1551924695.5,286047002.1,N
1551924715.3,286047000.9,N
1551924735.1,286047000.4,N
1551924755.9,286047000.3,N
1551924775.7,286047000.4,N
1551924795.6,286046999.8,N
1551924815.4,286047002.8,N
1551924835.2,286047000.0,N
1551924855.1,286046998.4,N
1551924856.0,286046998.4,N
1551924875.8,286046998.8,N
1551924895.7,286047001.2,N
1551924915.5,286046998.5,N
1551924935.3,286046999.1,N
1551924955.2,286046999.2,N
1551924975.0,286046998.9,N
1551924975.9,286046998.9,N
1551924995.7,286046996.8,N
1551925015.6,286046995.4,Y
1551925035.4,286046996.6,P
1551925055.3,286046998.2,N
1551925075.1,286046996.7,N
1551925076.0,286046996.7,N
1551925095.8,286046995.3,Y
1551925115.7,286046999.5,P
1551925135.5,286047000.9,N
1551925155.4,286047000.7,N
1551925175.2,286046998.1,N
1551925195.0,286046998.2,N
1551925195.9,286046998.2,N
1551925215.8,286046996.9,N
1551925235.6,286046996.9,N
1551925255.5,286046997.3,N
1551925275.3,286046996.6,N
1551925295.1,286046999.4,N
1551925315.9,286046999.1,N
1551925335.7,286046999.3,N
1551925355.6,286046998.4,N
1551925375.4,286047000.8,N
1551925395.2,286047001.0,N
1551925415.1,286046998.9,N
1551925416.0,286046998.9,N
1551925435.8,286046998.5,N
1551925455.7,286046998.8,N
1551925475.5,286046999.5,N
1551925495.3,286046997.7,N
1551925515.2,286046996.0,Y
1551925535.0,286046997.8,P
1551925535.9,286046997.8,P
1551925555.7,286046995.4,P
1551925575.6,286046997.7,N
1551925595.4,286046996.9,N
1551925615.3,286046997.3,N
1551925635.1,286046997.7,N
1551925636.0,286046997.7,N
1551925655.8,286046996.7,Y
1551925675.7,286047000.9,P
1551925695.5,286047000.5,N
1551925715.4,286047000.0,N
1551925735.2,286047001.1,N
1551925755.0,286047000.7,N
1551925755.9,286047000.7,N
1551925775.8,286047000.1,N
1551925795.6,286047000.4,N
1551925815.4,286047002.4,N
1551925835.3,286047002.7,N
1551925855.1,286047001.1,N
1551925875.9,286047002.1,N
1551925895.7,286047001.1,N
1551925915.5,286046998.5,N
1551925935.4,286046998.6,N
1551925955.2,286047000.2,N
1551925975.0,286046998.1,N
1551925976.0,286046998.1,N
1551925995.8,286047000.5,N
1551926015.6,286047000.2,N
1551926035.5,286046998.8,N
1551926055.3,286046999.1,N
1551926075.1,286046997.1,N
1551926095.9,286046997.5,N
1551926115.7,286046997.4,N
1551926135.6,286046996.7,N
1551926155.4,286046999.5,N
1551926175.2,286046999.1,N
1551926195.1,286046999.0,N
1551926196.0,286046999.0,N
1551926215.8,286046996.5,N
1551926235.9,286046996.5,N
1551926255.7,286046999.1,N
1551926275.6,286046999.2,N
1551926295.4,286046996.5,N
1551926315.2,286046996.9,N
1551926335.1,286046998.9,N
1551926336.0,286046998.9,N
1551926355.8,286046998.5,N
1551926375.7,286046998.8,N
1551926395.5,286047000.7,N
1551926415.3,286046998.2,N
1551926435.2,286047000.4,N
1551926455.0,286046999.9,N
1551926455.9,286046999.9,N
1551926475.7,286047000.4,N
1551926495.6,286047000.8,N
1551926515.4,286047000.5,N
1551926535.3,286046998.2,N
1551926555.1,286046998.9,N
1551926575.8,286046998.7,N
1551926595.7,286046999.0,N
1551926615.6,286046998.2,N
1551926635.4,286047000.6,N
1551926655.2,286047000.0,N
1551926675.1,286047002.0,N
1551926676.0,286047002.0,N
1551926695.8,286047002.3,N
1551926715.7,286047002.6,N
1551926735.5,286047001.7,N
1551926755.3,286047002.0,N
1551926775.2,286047002.4,N
1551926795.0,286047002.3,N
1551926795.9,286047002.3,N
1551926815.7,286047002.1,N
1551926835.6,286047001.5,N
1551926855.4,286047002.0,N
1551926875.3,286047002.4,N
1551926895.1,286047011.9,Y
1551926896.0,286047000.2,P
1551926915.8,286047000.9,P
1551926935.7,286046999.0,P
1551926955.5,286046999.4,N
1551926975.3,286046999.4,N
1551926995.2,286046998.6,N
1551927015.0,286046996.6,Y
1551927015.9,286046996.6,P
1551927035.8,286046996.6,N
1551927055.6,286046996.8,N
1551927075.4,286046997.4,N
1551927095.3,286046995.1,Y
1551927115.1,286046998.4,P
1551927135.9,286047000.4,N
1551927155.7,286047000.0,N
1551927175.5,286047001.7,N
1551927195.4,286047001.6,N
1551927215.2,286047001.7,N
1551927235.0,286047001.6,N
1551927235.9,286047001.6,N
1551927255.8,286047001.4,N
1551927275.6,286047004.2,N
1551927295.5,286047003.9,N
1551927315.3,286047003.9,N
1551927335.1,286047003.2,N
1551927355.9,286047005.8,Y
1551927375.7,286047002.8,P
1551927395.5,286047002.4,P
1551927415.4,286047000.7,N
1551927435.2,286047001.1,N
1551927455.1,286046999.8,N
1551927456.0,286046999.8,N
1551927475.8,286047000.1,N
1551927495.6,286047002.0,N
1551927515.5,286047002.0,N
1551927535.3,286047001.4,N
1551927555.1,286047003.9,Y
1551927575.9,286047001.4,P
1551927595.7,286047001.5,P
